Time,TemperatureF,DewpointF,PressureIn,WindDirection,WindDirectionDegrees,WindSpeedMPH,WindSpeedGustMPH,Humidity,HourlyPrecipIn,Conditions,Clouds,dailyrainin,SoftwareType,DateUTC
2013-09-27 00:00:00,49.9,47.0,30.41,East,90,2.0,3.0,92,0.00,,,0.00,Rainwise IP-100,2013-09-27 04:00:00,
2013-09-27 00:01:00,49.9,47.0,30.41,East,90,1.0,3.0,93,0.00,,,0.00,Rainwise IP-100,2013-09-27 04:01:00,
2013-09-27 00:06:00,49.8,47.0,30.41,SSE,157,2.0,5.0,93,0.00,,,0.00,Rainwise IP-100,2013-09-27 04:06:00,
2013-09-27 00:11:00,49.8,47.0,30.41,SE,135,2.0,4.0,93,0.00,,,0.00,Rainwise IP-100,2013-09-27 04:11:00,
2013-09-27 00:16:00,49.7,47.0,30.41,South,180,1.0,2.0,93,0.00,,,0.00,Rainwise IP-100,2013-09-27 04:16:00,
2013-09-27 00:21:00,49.5,47.0,30.41,East,90,2.0,2.0,93,0.00,,,0.00,Rainwise IP-100,2013-09-27 04:21:00,
2013-09-27 00:26:00,49.5,48.0,30.41,SW,225,1.0,3.0,94,0.00,,,0.00,Rainwise IP-100,2013-09-27 04:26:00,
2013-09-27 00:32:00,48.9,47.0,30.41,SW,225,2.0,2.0,94,0.00,,,0.00,Rainwise IP-100,2013-09-27 04:32:00,
2013-09-27 00:37:00,48.2,47.0,30.41,South,180,0.0,2.0,97,0.00,,,0.00,Rainwise IP-100,2013-09-27 04:37:00,
2013-09-27 00:42:00,47.7,47.0,30.41,SSW,202,1.0,2.0,97,0.00,,,0.00,Rainwise IP-100,2013-09-27 04:42:00,
2013-09-27 00:47:00,47.5,47.0,30.41,SW,225,1.0,2.0,97,0.00,,,0.00,Rainwise IP-100,2013-09-27 04:47:00,
2013-09-27 00:52:00,47.4,47.0,30.41,SW,225,2.0,2.0,97,0.00,,,0.00,Rainwise IP-100,2013-09-27 04:52:00,
2013-09-27 00:57:00,47.5,47.0,30.41,South,180,0.0,2.0,97,0.00,,,0.00,Rainwise IP-100,2013-09-27 04:57:00,
2013-09-27 01:02:00,47.3,46.0,30.41,South,180,0.0,2.0,97,0.00,,,0.00,Rainwise IP-100,2013-09-27 05:02:00,
2013-09-27 01:07:00,47.2,46.0,30.41,West,270,0.0,2.0,97,0.00,,,0.00,Rainwise IP-100,2013-09-27 05:07:00,
2013-09-27 01:13:00,47.2,46.0,30.41,West,270,0.0,1.0,97,0.00,,,0.00,Rainwise IP-100,2013-09-27 05:13:00,
2013-09-27 01:18:00,47.1,46.0,30.41,South,180,0.0,2.0,97,0.00,,,0.00,Rainwise IP-100,2013-09-27 05:18:00,
2013-09-27 01:23:00,47.0,46.0,30.41,SW,225,0.0,0.0,97,0.00,,,0.00,Rainwise IP-100,2013-09-27 05:23:00,
2013-09-27 01:28:00,47.2,46.0,30.41,SW,225,0.0,2.0,97,0.00,,,0.00,Rainwise IP-100,2013-09-27 05:28:00,
2013-09-27 01:33:00,46.9,46.0,30.41,SW,225,2.0,0.0,97,0.00,,,0.00,Rainwise IP-100,2013-09-27 05:33:00,
2013-09-27 01:38:00,46.7,46.0,30.41,SW,225,0.0,2.0,97,0.00,,,0.00,Rainwise IP-100,2013-09-27 05:38:00,
2013-09-27 01:43:00,46.5,46.0,30.41,SW,225,0.0,0.0,97,0.00,,,0.00,Rainwise IP-100,2013-09-27 05:43:00,
2013-09-27 01:49:00,46.3,45.0,30.41,SW,225,0.0,0.0,97,0.00,,,0.00,Rainwise IP-100,2013-09-27 05:49:00,
2013-09-27 01:54:00,45.8,45.0,30.41,SW,225,0.0,0.0,97,0.00,,,0.00,Rainwise IP-100,2013-09-27 05:54:00,
2013-09-27 01:59:00,45.7,45.0,30.41,SW,225,0.0,0.0,97,0.00,,,0.00,Rainwise IP-100,2013-09-27 05:59:00,
2013-09-27 02:04:00,45.6,45.0,30.41,SW,225,0.0,0.0,97,0.00,,,0.00,Rainwise IP-100,2013-09-27 06:04:00,
2013-09-27 02:09:00,45.5,45.0,30.41,SW,225,0.0,0.0,97,0.00,,,0.00,Rainwise IP-100,2013-09-27 06:09:00,
2013-09-27 02:14:00,45.4,44.0,30.41,SW,225,0.0,0.0,97,0.00,,,0.00,Rainwise IP-100,2013-09-27 06:14:00,
2013-09-27 02:19:00,45.4,44.0,30.41,SW,225,0.0,0.0,97,0.00,,,0.00,Rainwise IP-100,2013-09-27 06:19:00,
2013-09-27 02:24:00,45.4,44.0,30.40,SW,225,0.0,0.0,97,0.00,,,0.00,Rainwise IP-100,2013-09-27 06:24:00,
2013-09-27 02:30:00,45.2,44.0,30.40,SW,225,0.0,0.0,97,0.00,,,0.00,Rainwise IP-100,2013-09-27 06:30:00,
2013-09-27 02:35:00,44.9,44.0,30.40,SW,225,0.0,0.0,96,0.00,,,0.00,Rainwise IP-100,2013-09-27 06:35:00,
2013-09-27 02:40:00,44.9,44.0,30.40,SW,225,0.0,2.0,96,0.00,,,0.00,Rainwise IP-100,2013-09-27 06:40:00,
2013-09-27 02:45:00,44.9,44.0,30.40,SW,225,0.0,0.0,96,0.00,,,0.00,Rainwise IP-100,2013-09-27 06:45:00,
2013-09-27 02:50:00,44.8,44.0,30.40,SW,225,0.0,0.0,96,0.00,,,0.00,Rainwise IP-100,2013-09-27 06:50:00,
2013-09-27 02:55:00,44.8,44.0,30.40,SW,225,0.0,0.0,96,0.00,,,0.00,Rainwise IP-100,2013-09-27 06:55:00,
2013-09-27 03:00:00,44.7,44.0,30.40,SW,225,0.0,0.0,96,0.00,,,0.00,Rainwise IP-100,2013-09-27 07:00:00,
2013-09-27 03:06:00,44.5,44.0,30.40,SW,225,0.0,0.0,96,0.00,,,0.00,Rainwise IP-100,2013-09-27 07:06:00,
2013-09-27 03:11:00,44.3,43.0,30.40,SW,225,0.0,0.0,96,0.00,,,0.00,Rainwise IP-100,2013-09-27 07:11:00,
2013-09-27 03:16:00,44.3,43.0,30.39,SW,225,0.0,0.0,96,0.00,,,0.00,Rainwise IP-100,2013-09-27 07:16:00,
2013-09-27 03:21:00,44.2,43.0,30.39,SW,225,0.0,0.0,96,0.00,,,0.00,Rainwise IP-100,2013-09-27 07:21:00,
2013-09-27 03:26:00,44.1,43.0,30.39,SW,225,0.0,0.0,96,0.00,,,0.00,Rainwise IP-100,2013-09-27 07:26:00,
2013-09-27 03:31:00,44.0,43.0,30.39,SW,225,0.0,0.0,96,0.00,,,0.00,Rainwise IP-100,2013-09-27 07:31:00,
2013-09-27 03:36:00,43.9,43.0,30.39,SW,225,0.0,0.0,96,0.00,,,0.00,Rainwise IP-100,2013-09-27 07:36:00,
2013-09-27 03:41:00,43.7,43.0,30.39,SW,225,0.0,0.0,96,0.00,,,0.00,Rainwise IP-100,2013-09-27 07:41:00,
2013-09-27 03:47:00,43.6,43.0,30.39,SW,225,0.0,0.0,96,0.00,,,0.00,Rainwise IP-100,2013-09-27 07:47:00,
2013-09-27 03:48:00,43.8,43.0,30.39,SW,225,0.0,0.0,96,0.00,,,0.00,Rainwise IP-100,2013-09-27 07:48:00,
2013-09-27 03:53:00,43.8,43.0,30.39,SW,225,0.0,0.0,96,0.00,,,0.00,Rainwise IP-100,2013-09-27 07:53:00,
2013-09-27 03:58:00,43.6,43.0,30.39,SW,225,0.0,0.0,96,0.00,,,0.00,Rainwise IP-100,2013-09-27 07:58:00,
2013-09-27 04:03:00,43.5,43.0,30.39,SW,225,0.0,0.0,96,0.00,,,0.00,Rainwise IP-100,2013-09-27 08:03:00,
2013-09-27 04:09:00,43.5,43.0,30.39,SW,225,0.0,0.0,96,0.00,,,0.00,Rainwise IP-100,2013-09-27 08:09:00,
2013-09-27 04:14:00,43.2,42.0,30.39,SW,225,0.0,0.0,96,0.00,,,0.00,Rainwise IP-100,2013-09-27 08:14:00,
2013-09-27 04:19:00,42.9,42.0,30.40,SW,225,0.0,0.0,96,0.00,,,0.00,Rainwise IP-100,2013-09-27 08:19:00,
2013-09-27 04:24:00,42.6,42.0,30.39,SW,225,0.0,0.0,96,0.00,,,0.00,Rainwise IP-100,2013-09-27 08:24:00,
2013-09-27 04:29:00,42.4,41.0,30.39,SW,225,0.0,0.0,96,0.00,,,0.00,Rainwise IP-100,2013-09-27 08:29:00,
2013-09-27 04:34:00,42.4,41.0,30.39,SW,225,0.0,0.0,96,0.00,,,0.00,Rainwise IP-100,2013-09-27 08:34:00,
2013-09-27 04:39:00,42.3,41.0,30.39,SW,225,0.0,0.0,96,0.00,,,0.00,Rainwise IP-100,2013-09-27 08:39:00,
2013-09-27 04:45:00,42.1,41.0,30.39,SW,225,0.0,0.0,96,0.00,,,0.00,Rainwise IP-100,2013-09-27 08:45:00,
2013-09-27 04:50:00,42.1,41.0,30.40,SW,225,0.0,0.0,96,0.00,,,0.00,Rainwise IP-100,2013-09-27 08:50:00,
2013-09-27 04:55:00,41.9,41.0,30.40,SW,225,0.0,0.0,96,0.00,,,0.00,Rainwise IP-100,2013-09-27 08:55:00,
2013-09-27 05:00:00,41.9,41.0,30.40,SW,225,0.0,0.0,96,0.00,,,0.00,Rainwise IP-100,2013-09-27 09:00:00,
2013-09-27 05:05:00,42.4,41.0,30.40,SW,225,0.0,0.0,96,0.00,,,0.00,Rainwise IP-100,2013-09-27 09:05:00,
2013-09-27 05:10:00,42.4,41.0,30.41,SW,225,0.0,0.0,96,0.00,,,0.00,Rainwise IP-100,2013-09-27 09:10:00,
2013-09-27 05:15:00,42.7,42.0,30.41,SW,225,0.0,0.0,96,0.00,,,0.00,Rainwise IP-100,2013-09-27 09:15:00,
2013-09-27 05:20:00,42.8,42.0,30.41,SW,225,0.0,0.0,96,0.00,,,0.00,Rainwise IP-100,2013-09-27 09:20:00,
2013-09-27 05:26:00,42.7,42.0,30.41,SW,225,0.0,0.0,96,0.00,,,0.00,Rainwise IP-100,2013-09-27 09:26:00,
2013-09-27 05:31:00,42.5,42.0,30.41,SW,225,0.0,0.0,96,0.00,,,0.00,Rainwise IP-100,2013-09-27 09:31:00,
2013-09-27 05:36:00,42.6,42.0,30.41,SW,225,0.0,0.0,96,0.00,,,0.00,Rainwise IP-100,2013-09-27 09:36:00,
2013-09-27 05:41:00,42.9,42.0,30.41,SW,225,0.0,0.0,96,0.00,,,0.00,Rainwise IP-100,2013-09-27 09:41:00,
2013-09-27 05:46:00,42.9,42.0,30.41,SW,225,0.0,0.0,96,0.00,,,0.00,Rainwise IP-100,2013-09-27 09:46:00,
2013-09-27 05:51:00,42.7,42.0,30.41,SW,225,0.0,0.0,96,0.00,,,0.00,Rainwise IP-100,2013-09-27 09:51:00,
2013-09-27 05:56:00,42.3,41.0,30.41,SW,225,0.0,0.0,96,0.00,,,0.00,Rainwise IP-100,2013-09-27 09:56:00,
2013-09-27 06:02:00,42.1,41.0,30.41,SW,225,0.0,0.0,96,0.00,,,0.00,Rainwise IP-100,2013-09-27 10:02:00,
2013-09-27 06:07:00,42.1,41.0,30.41,SW,225,0.0,0.0,96,0.00,,,0.00,Rainwise IP-100,2013-09-27 10:07:00,
2013-09-27 06:12:00,42.6,42.0,30.42,SW,225,0.0,0.0,96,0.00,,,0.00,Rainwise IP-100,2013-09-27 10:12:00,
2013-09-27 06:17:00,43.1,42.0,30.42,SW,225,0.0,0.0,96,0.00,,,0.00,Rainwise IP-100,2013-09-27 10:17:00,
2013-09-27 06:22:00,43.4,42.0,30.42,SW,225,0.0,0.0,96,0.00,,,0.00,Rainwise IP-100,2013-09-27 10:22:00,
2013-09-27 06:27:00,43.7,43.0,30.43,SW,225,0.0,0.0,96,0.00,,,0.00,Rainwise IP-100,2013-09-27 10:27:00,
2013-09-27 06:32:00,43.8,43.0,30.43,SW,225,0.0,0.0,96,0.00,,,0.00,Rainwise IP-100,2013-09-27 10:32:00,
2013-09-27 06:37:00,43.7,43.0,30.43,SW,225,0.0,0.0,96,0.00,,,0.00,Rainwise IP-100,2013-09-27 10:37:00,
2013-09-27 06:43:00,43.4,42.0,30.43,SW,225,0.0,0.0,96,0.00,,,0.00,Rainwise IP-100,2013-09-27 10:43:00,
2013-09-27 06:48:00,43.3,42.0,30.43,SW,225,0.0,0.0,96,0.00,,,0.00,Rainwise IP-100,2013-09-27 10:48:00,
2013-09-27 06:53:00,43.1,42.0,30.43,SW,225,0.0,0.0,96,0.00,,,0.00,Rainwise IP-100,2013-09-27 10:53:00,
2013-09-27 06:58:00,42.9,42.0,30.43,SW,225,0.0,0.0,96,0.00,,,0.00,Rainwise IP-100,2013-09-27 10:58:00,
2013-09-27 07:03:00,43.3,42.0,30.44,SW,225,0.0,0.0,96,0.00,,,0.00,Rainwise IP-100,2013-09-27 11:03:00,
2013-09-27 07:08:00,43.7,43.0,30.44,SW,225,0.0,0.0,96,0.00,,,0.00,Rainwise IP-100,2013-09-27 11:08:00,
2013-09-27 07:13:00,44.2,43.0,30.45,SW,225,0.0,0.0,96,0.00,,,0.00,Rainwise IP-100,2013-09-27 11:13:00,
2013-09-27 07:19:00,44.5,44.0,30.45,SW,225,0.0,0.0,96,0.00,,,0.00,Rainwise IP-100,2013-09-27 11:19:00,
2013-09-27 07:24:00,45.2,44.0,30.46,SW,225,0.0,0.0,97,0.00,,,0.00,Rainwise IP-100,2013-09-27 11:24:00,
2013-09-27 07:29:00,46.2,45.0,30.47,SW,225,0.0,0.0,97,0.00,,,0.00,Rainwise IP-100,2013-09-27 11:29:00,
2013-09-27 07:34:00,46.6,46.0,30.47,SW,225,0.0,0.0,97,0.00,,,0.00,Rainwise IP-100,2013-09-27 11:34:00,
2013-09-27 07:39:00,46.6,46.0,30.47,SW,225,0.0,0.0,97,0.00,,,0.00,Rainwise IP-100,2013-09-27 11:39:00,
2013-09-27 07:44:00,46.6,46.0,30.47,SW,225,0.0,0.0,97,0.00,,,0.00,Rainwise IP-100,2013-09-27 11:44:00,
2013-09-27 07:49:00,46.8,46.0,30.48,SW,225,0.0,0.0,97,0.00,,,0.00,Rainwise IP-100,2013-09-27 11:49:00,
2013-09-27 07:54:00,47.0,46.0,30.48,SW,225,0.0,0.0,97,0.00,,,0.00,Rainwise IP-100,2013-09-27 11:54:00,
2013-09-27 08:00:00,47.2,46.0,30.48,SW,225,0.0,0.0,97,0.00,,,0.00,Rainwise IP-100,2013-09-27 12:00:00,
2013-09-27 08:05:00,47.4,47.0,30.48,SW,225,0.0,0.0,97,0.00,,,0.00,Rainwise IP-100,2013-09-27 12:05:00,
2013-09-27 08:10:00,47.3,46.0,30.48,SW,225,0.0,0.0,97,0.00,,,0.00,Rainwise IP-100,2013-09-27 12:10:00,
2013-09-27 08:15:00,47.6,47.0,30.49,SW,225,0.0,0.0,97,0.00,,,0.00,Rainwise IP-100,2013-09-27 12:15:00,
2013-09-27 08:20:00,47.8,47.0,30.49,SW,225,0.0,0.0,97,0.00,,,0.00,Rainwise IP-100,2013-09-27 12:20:00,
2013-09-27 08:25:00,48.0,47.0,30.49,SW,225,0.0,0.0,97,0.00,,,0.00,Rainwise IP-100,2013-09-27 12:25:00,
2013-09-27 08:30:00,48.2,47.0,30.49,SW,225,0.0,0.0,97,0.00,,,0.00,Rainwise IP-100,2013-09-27 12:30:00,
2013-09-27 08:36:00,48.5,48.0,30.49,SW,225,0.0,0.0,97,0.00,,,0.00,Rainwise IP-100,2013-09-27 12:36:00,
2013-09-27 08:41:00,48.7,48.0,30.49,SW,225,0.0,0.0,97,0.00,,,0.00,Rainwise IP-100,2013-09-27 12:41:00,
2013-09-27 08:46:00,48.9,48.0,30.49,SW,225,0.0,0.0,97,0.00,,,0.00,Rainwise IP-100,2013-09-27 12:46:00,
2013-09-27 08:51:00,49.1,48.0,30.49,SW,225,0.0,0.0,97,0.00,,,0.00,Rainwise IP-100,2013-09-27 12:51:00,
2013-09-27 08:56:00,49.4,48.0,30.50,SW,225,0.0,0.0,97,0.00,,,0.00,Rainwise IP-100,2013-09-27 12:56:00,
2013-09-27 09:01:00,49.9,49.0,30.50,SW,225,0.0,0.0,97,0.00,,,0.00,Rainwise IP-100,2013-09-27 13:01:00,
2013-09-27 09:06:00,50.3,49.0,30.50,SW,225,0.0,0.0,97,0.00,,,0.00,Rainwise IP-100,2013-09-27 13:06:00,
2013-09-27 09:11:00,50.6,50.0,30.51,North,360,2.0,0.0,97,0.00,,,0.00,Rainwise IP-100,2013-09-27 13:11:00,
2013-09-27 09:17:00,51.1,50.0,30.51,SE,135,1.0,2.0,97,0.00,,,0.00,Rainwise IP-100,2013-09-27 13:17:00,
2013-09-27 09:22:00,51.5,51.0,30.51,SE,135,0.0,2.0,97,0.00,,,0.00,Rainwise IP-100,2013-09-27 13:22:00,
2013-09-27 09:27:00,51.9,51.0,30.51,South,180,2.0,4.0,97,0.00,,,0.00,Rainwise IP-100,2013-09-27 13:27:00,
2013-09-27 09:32:00,52.5,52.0,30.51,South,180,1.0,2.0,97,0.00,,,0.00,Rainwise IP-100,2013-09-27 13:32:00,
2013-09-27 09:37:00,52.7,52.0,30.52,South,180,0.0,2.0,97,0.00,,,0.00,Rainwise IP-100,2013-09-27 13:37:00,
2013-09-27 09:42:00,52.9,52.0,30.52,North,360,0.0,2.0,97,0.00,,,0.00,Rainwise IP-100,2013-09-27 13:42:00,
2013-09-27 09:47:00,53.4,53.0,30.52,North,360,0.0,0.0,97,0.00,,,0.00,Rainwise IP-100,2013-09-27 13:47:00,
2013-09-27 09:52:00,53.8,52.0,30.52,SE,135,1.0,2.0,94,0.00,,,0.00,Rainwise IP-100,2013-09-27 13:52:00,
2013-09-27 09:57:00,54.3,52.0,30.53,NE,45,1.0,4.0,94,0.00,,,0.00,Rainwise IP-100,2013-09-27 13:57:00,
2013-09-27 10:03:00,54.7,53.0,30.53,ENE,67,2.0,2.0,93,0.00,,,0.00,Rainwise IP-100,2013-09-27 14:03:00,
2013-09-27 10:08:00,55.0,51.0,30.53,ESE,112,2.0,3.0,87,0.00,,,0.00,Rainwise IP-100,2013-09-27 14:08:00,
2013-09-27 10:13:00,55.3,51.0,30.53,SE,135,2.0,3.0,86,0.00,,,0.00,Rainwise IP-100,2013-09-27 14:13:00,
2013-09-27 10:18:00,55.9,51.0,30.54,SSW,202,1.0,3.0,85,0.00,,,0.00,Rainwise IP-100,2013-09-27 14:18:00,
2013-09-27 10:23:00,55.9,50.0,30.54,SW,225,1.0,3.0,83,0.00,,,0.00,Rainwise IP-100,2013-09-27 14:23:00,
2013-09-27 10:28:00,56.1,50.0,30.54,East,90,0.0,2.0,82,0.00,,,0.00,Rainwise IP-100,2013-09-27 14:28:00,
2013-09-27 10:33:00,56.3,50.0,30.54,NE,45,0.0,2.0,81,0.00,,,0.00,Rainwise IP-100,2013-09-27 14:33:00,
2013-09-27 10:39:00,56.3,50.0,30.54,South,180,0.0,2.0,81,0.00,,,0.00,Rainwise IP-100,2013-09-27 14:39:00,
2013-09-27 10:44:00,56.3,50.0,30.55,South,180,1.0,2.0,81,0.00,,,0.00,Rainwise IP-100,2013-09-27 14:44:00,
2013-09-27 10:49:00,56.1,50.0,30.55,ESE,112,0.0,2.0,82,0.00,,,0.00,Rainwise IP-100,2013-09-27 14:49:00,
2013-09-27 10:54:00,56.1,50.0,30.55,ESE,112,0.0,1.0,83,0.00,,,0.00,Rainwise IP-100,2013-09-27 14:54:00,
2013-09-27 10:59:00,56.0,51.0,30.55,ESE,112,0.0,2.0,85,0.00,,,0.00,Rainwise IP-100,2013-09-27 14:59:00,
2013-09-27 11:04:00,55.9,52.0,30.55,ESE,112,0.0,2.0,86,0.00,,,0.00,Rainwise IP-100,2013-09-27 15:04:00,
2013-09-27 11:09:00,55.8,52.0,30.55,ESE,112,0.0,0.0,86,0.00,,,0.00,Rainwise IP-100,2013-09-27 15:09:00,
2013-09-27 11:14:00,55.7,53.0,30.55,ESE,112,0.0,0.0,88,0.00,,,0.00,Rainwise IP-100,2013-09-27 15:14:00,
2013-09-27 11:20:00,55.9,53.0,30.55,NW,315,0.0,2.0,88,0.00,,,0.00,Rainwise IP-100,2013-09-27 15:20:00,
2013-09-27 11:25:00,56.0,53.0,30.55,NW,315,0.0,0.0,88,0.00,,,0.00,Rainwise IP-100,2013-09-27 15:25:00,
2013-09-27 11:30:00,56.0,51.0,30.55,ESE,112,2.0,2.0,84,0.00,,,0.00,Rainwise IP-100,2013-09-27 15:30:00,
2013-09-27 11:35:00,55.9,51.0,30.55,SE,135,2.0,2.0,84,0.00,,,0.00,Rainwise IP-100,2013-09-27 15:35:00,
2013-09-27 11:40:00,55.9,51.0,30.55,SE,135,1.0,2.0,84,0.00,,,0.00,Rainwise IP-100,2013-09-27 15:40:00,
2013-09-27 11:45:00,55.7,51.0,30.55,ESE,112,1.0,2.0,85,0.00,,,0.00,Rainwise IP-100,2013-09-27 15:45:00,
2013-09-27 11:50:00,55.6,51.0,30.55,NW,315,1.0,2.0,84,0.00,,,0.00,Rainwise IP-100,2013-09-27 15:50:00,
2013-09-27 11:56:00,55.5,51.0,30.55,ESE,112,0.0,2.0,85,0.00,,,0.00,Rainwise IP-100,2013-09-27 15:56:00,
2013-09-27 12:01:00,55.4,51.0,30.55,SE,135,2.0,4.0,86,0.00,,,0.00,Rainwise IP-100,2013-09-27 16:01:00,
2013-09-27 12:06:00,55.4,51.0,30.55,ENE,67,2.0,2.0,86,0.00,,,0.00,Rainwise IP-100,2013-09-27 16:06:00,
2013-09-27 12:11:00,55.3,51.0,30.55,East,90,0.0,2.0,86,0.00,,,0.00,Rainwise IP-100,2013-09-27 16:11:00,
2013-09-27 12:16:00,55.3,51.0,30.55,NNW,337,0.0,2.0,86,0.00,,,0.00,Rainwise IP-100,2013-09-27 16:16:00,
2013-09-27 12:21:00,55.5,52.0,30.55,NNW,337,0.0,1.0,87,0.00,,,0.00,Rainwise IP-100,2013-09-27 16:21:00,
2013-09-27 12:26:00,55.9,52.0,30.55,NNW,337,0.0,2.0,86,0.00,,,0.00,Rainwise IP-100,2013-09-27 16:26:00,
2013-09-27 12:31:00,55.9,50.0,30.55,South,180,1.0,2.0,82,0.00,,,0.00,Rainwise IP-100,2013-09-27 16:31:00,
2013-09-27 12:37:00,55.9,51.0,30.55,ESE,112,2.0,2.0,85,0.00,,,0.00,Rainwise IP-100,2013-09-27 16:37:00,
2013-09-27 12:42:00,55.9,51.0,30.55,East,90,2.0,2.0,84,0.00,,,0.00,Rainwise IP-100,2013-09-27 16:42:00,
2013-09-27 12:47:00,55.7,52.0,30.55,ESE,112,1.0,2.0,86,0.00,,,0.00,Rainwise IP-100,2013-09-27 16:47:00,
2013-09-27 12:52:00,55.5,52.0,30.55,East,90,0.0,2.0,87,0.00,,,0.00,Rainwise IP-100,2013-09-27 16:52:00,
2013-09-27 12:57:00,55.4,52.0,30.55,East,90,0.0,2.0,88,0.00,,,0.00,Rainwise IP-100,2013-09-27 16:57:00,
2013-09-27 13:02:00,55.4,52.0,30.55,ESE,112,1.0,1.0,88,0.00,,,0.00,Rainwise IP-100,2013-09-27 17:02:00,
2013-09-27 13:07:00,55.3,52.0,30.55,South,180,0.0,2.0,88,0.00,,,0.00,Rainwise IP-100,2013-09-27 17:07:00,
2013-09-27 13:13:00,55.4,52.0,30.55,NNE,22,0.0,2.0,88,0.00,,,0.00,Rainwise IP-100,2013-09-27 17:13:00,
2013-09-27 13:18:00,55.6,52.0,30.55,South,180,0.0,2.0,87,0.00,,,0.00,Rainwise IP-100,2013-09-27 17:18:00,
2013-09-27 13:21:00,55.7,52.0,30.55,East,90,1.0,3.0,87,0.00,,,0.00,Rainwise IP-100,2013-09-27 17:21:00,
2013-09-27 13:26:00,55.6,53.0,30.55,East,90,1.0,3.0,88,0.00,,,0.00,Rainwise IP-100,2013-09-27 17:26:00,
2013-09-27 13:31:00,55.4,52.0,30.54,NNW,337,0.0,2.0,89,0.00,,,0.00,Rainwise IP-100,2013-09-27 17:31:00,
2013-09-27 13:37:00,55.1,53.0,30.54,ESE,112,2.0,2.0,91,0.00,,,0.00,Rainwise IP-100,2013-09-27 17:37:00,
2013-09-27 13:42:00,54.8,52.0,30.54,ESE,112,1.0,2.0,91,0.00,,,0.00,Rainwise IP-100,2013-09-27 17:42:00,
2013-09-27 13:47:00,54.7,53.0,30.54,ESE,112,0.0,2.0,92,0.00,,,0.00,Rainwise IP-100,2013-09-27 17:47:00,
2013-09-27 13:52:00,54.7,53.0,30.54,NNE,22,0.0,2.0,92,0.00,,,0.00,Rainwise IP-100,2013-09-27 17:52:00,
2013-09-27 13:57:00,54.6,53.0,30.54,East,90,0.0,2.0,92,0.00,,,0.00,Rainwise IP-100,2013-09-27 17:57:00,
2013-09-27 14:02:00,54.6,52.0,30.54,East,90,0.0,2.0,91,0.00,,,0.00,Rainwise IP-100,2013-09-27 18:02:00,
2013-09-27 14:07:00,54.6,52.0,30.54,East,90,2.0,2.0,91,0.00,,,0.00,Rainwise IP-100,2013-09-27 18:07:00,
2013-09-27 14:12:00,54.6,52.0,30.54,East,90,0.0,2.0,91,0.00,,,0.00,Rainwise IP-100,2013-09-27 18:12:00,
2013-09-27 14:18:00,54.9,53.0,30.54,NE,45,1.0,2.0,91,0.00,,,0.00,Rainwise IP-100,2013-09-27 18:18:00,
2013-09-27 14:23:00,55.1,53.0,30.54,SE,135,0.0,1.0,90,0.00,,,0.00,Rainwise IP-100,2013-09-27 18:23:00,
2013-09-27 14:28:00,55.3,53.0,30.54,SE,135,0.0,0.0,90,0.00,,,0.00,Rainwise IP-100,2013-09-27 18:28:00,
2013-09-27 14:33:00,55.5,53.0,30.54,SE,135,0.0,2.0,89,0.00,,,0.00,Rainwise IP-100,2013-09-27 18:33:00,
2013-09-27 14:38:00,55.5,53.0,30.54,South,180,0.0,2.0,89,0.00,,,0.00,Rainwise IP-100,2013-09-27 18:38:00,
2013-09-27 14:43:00,55.8,53.0,30.54,North,360,0.0,2.0,88,0.00,,,0.00,Rainwise IP-100,2013-09-27 18:43:00,
2013-09-27 14:48:00,55.8,53.0,30.54,ESE,112,1.0,2.0,88,0.00,,,0.00,Rainwise IP-100,2013-09-27 18:48:00,
2013-09-27 14:54:00,55.9,53.0,30.54,South,180,0.0,2.0,88,0.00,,,0.00,Rainwise IP-100,2013-09-27 18:54:00,
2013-09-27 14:59:00,55.9,53.0,30.54,South,180,0.0,0.0,88,0.00,,,0.00,Rainwise IP-100,2013-09-27 18:59:00,
2013-09-27 15:04:00,55.9,53.0,30.54,South,180,0.0,2.0,88,0.00,,,0.00,Rainwise IP-100,2013-09-27 19:04:00,
2013-09-27 15:09:00,55.9,53.0,30.54,South,180,0.0,0.0,89,0.00,,,0.00,Rainwise IP-100,2013-09-27 19:09:00,
2013-09-27 15:14:00,55.9,53.0,30.54,NE,45,0.0,2.0,89,0.00,,,0.00,Rainwise IP-100,2013-09-27 19:14:00,
2013-09-27 15:19:00,56.1,53.0,30.54,NE,45,0.0,2.0,88,0.00,,,0.00,Rainwise IP-100,2013-09-27 19:19:00,
2013-09-27 15:24:00,56.1,53.0,30.53,SE,135,0.0,2.0,88,0.00,,,0.00,Rainwise IP-100,2013-09-27 19:24:00,
2013-09-27 15:29:00,56.2,53.0,30.53,NE,45,0.0,0.0,88,0.00,,,0.00,Rainwise IP-100,2013-09-27 19:29:00,
2013-09-27 15:35:00,56.2,52.0,30.54,NE,45,0.0,0.0,87,0.00,,,0.00,Rainwise IP-100,2013-09-27 19:35:00,
2013-09-27 15:40:00,56.1,52.0,30.53,SSE,157,0.0,2.0,86,0.00,,,0.00,Rainwise IP-100,2013-09-27 19:40:00,
2013-09-27 15:45:00,56.1,52.0,30.53,SW,225,1.0,2.0,86,0.00,,,0.00,Rainwise IP-100,2013-09-27 19:45:00,
2013-09-27 15:50:00,56.0,52.0,30.54,NNE,22,0.0,2.0,87,0.00,,,0.00,Rainwise IP-100,2013-09-27 19:50:00,
2013-09-27 15:55:00,56.1,52.0,30.53,NNE,22,0.0,0.0,87,0.00,,,0.00,Rainwise IP-100,2013-09-27 19:55:00,
2013-09-27 16:00:00,56.1,52.0,30.54,SE,135,0.0,2.0,87,0.00,,,0.00,Rainwise IP-100,2013-09-27 20:00:00,
2013-09-27 16:05:00,56.1,52.0,30.54,SE,135,0.0,1.0,86,0.00,,,0.00,Rainwise IP-100,2013-09-27 20:05:00,
2013-09-27 16:11:00,56.2,52.0,30.53,South,180,1.0,2.0,86,0.00,,,0.00,Rainwise IP-100,2013-09-27 20:11:00,
2013-09-27 16:16:00,56.2,51.0,30.53,SW,225,0.0,2.0,85,0.00,,,0.00,Rainwise IP-100,2013-09-27 20:16:00,
2013-09-27 16:21:00,56.2,51.0,30.53,SE,135,1.0,2.0,84,0.00,,,0.00,Rainwise IP-100,2013-09-27 20:21:00,
2013-09-27 16:26:00,56.3,51.0,30.54,ESE,112,1.0,2.0,85,0.00,,,0.00,Rainwise IP-100,2013-09-27 20:26:00,
2013-09-27 16:31:00,56.3,51.0,30.54,East,90,2.0,2.0,84,0.00,,,0.00,Rainwise IP-100,2013-09-27 20:31:00,
2013-09-27 16:36:00,56.3,52.0,30.54,East,90,1.0,2.0,87,0.00,,,0.00,Rainwise IP-100,2013-09-27 20:36:00,
2013-09-27 16:41:00,56.2,52.0,30.54,East,90,0.0,2.0,87,0.00,,,0.00,Rainwise IP-100,2013-09-27 20:41:00,
2013-09-27 16:46:00,56.1,53.0,30.54,East,90,0.0,2.0,88,0.00,,,0.00,Rainwise IP-100,2013-09-27 20:46:00,
2013-09-27 16:52:00,56.1,52.0,30.54,SSW,202,0.0,2.0,86,0.00,,,0.00,Rainwise IP-100,2013-09-27 20:52:00,
2013-09-27 16:57:00,56.2,51.0,30.54,South,180,0.0,1.0,85,0.00,,,0.00,Rainwise IP-100,2013-09-27 20:57:00,
2013-09-27 17:02:00,56.3,51.0,30.54,South,180,1.0,2.0,85,0.00,,,0.00,Rainwise IP-100,2013-09-27 21:02:00,
2013-09-27 17:07:00,56.3,51.0,30.54,South,180,1.0,2.0,85,0.00,,,0.00,Rainwise IP-100,2013-09-27 21:07:00,
2013-09-27 17:12:00,56.4,52.0,30.54,North,360,1.0,2.0,84,0.00,,,0.00,Rainwise IP-100,2013-09-27 21:12:00,
2013-09-27 17:17:00,56.4,52.0,30.54,ESE,112,1.0,2.0,84,0.00,,,0.00,Rainwise IP-100,2013-09-27 21:17:00,
2013-09-27 17:22:00,56.4,52.0,30.55,South,180,0.0,2.0,84,0.00,,,0.00,Rainwise IP-100,2013-09-27 21:22:00,
2013-09-27 17:28:00,56.4,52.0,30.54,West,270,0.0,0.0,85,0.00,,,0.00,Rainwise IP-100,2013-09-27 21:28:00,
2013-09-27 17:33:00,56.3,52.0,30.54,West,270,0.0,0.0,86,0.00,,,0.00,Rainwise IP-100,2013-09-27 21:33:00,
2013-09-27 17:38:00,56.3,53.0,30.54,West,270,0.0,0.0,88,0.00,,,0.00,Rainwise IP-100,2013-09-27 21:38:00,
2013-09-27 17:43:00,56.1,52.0,30.54,SE,135,1.0,2.0,87,0.00,,,0.00,Rainwise IP-100,2013-09-27 21:43:00,
2013-09-27 17:48:00,56.0,53.0,30.54,SE,135,1.0,2.0,88,0.00,,,0.00,Rainwise IP-100,2013-09-27 21:48:00,
2013-09-27 17:53:00,55.9,53.0,30.54,SE,135,0.0,2.0,88,0.00,,,0.00,Rainwise IP-100,2013-09-27 21:53:00,
2013-09-27 17:58:00,55.9,52.0,30.54,East,90,0.0,2.0,86,0.00,,,0.00,Rainwise IP-100,2013-09-27 21:58:00,
2013-09-27 18:03:00,55.9,52.0,30.54,East,90,0.0,2.0,87,0.00,,,0.00,Rainwise IP-100,2013-09-27 22:03:00,
2013-09-27 18:09:00,55.9,52.0,30.54,East,90,0.0,1.0,87,0.00,,,0.00,Rainwise IP-100,2013-09-27 22:09:00,
2013-09-27 18:14:00,55.9,53.0,30.54,East,90,0.0,2.0,88,0.00,,,0.00,Rainwise IP-100,2013-09-27 22:14:00,
2013-09-27 18:19:00,55.7,53.0,30.55,East,90,0.0,2.0,88,0.00,,,0.00,Rainwise IP-100,2013-09-27 22:19:00,
2013-09-27 18:24:00,55.6,52.0,30.54,SE,135,2.0,2.0,87,0.00,,,0.00,Rainwise IP-100,2013-09-27 22:24:00,
2013-09-27 18:29:00,55.5,53.0,30.54,SE,135,1.0,2.0,88,0.00,,,0.00,Rainwise IP-100,2013-09-27 22:29:00,
2013-09-27 18:34:00,55.3,53.0,30.54,SE,135,0.0,2.0,91,0.00,,,0.00,Rainwise IP-100,2013-09-27 22:34:00,
2013-09-27 18:39:00,54.7,52.0,30.54,SE,135,0.0,0.0,91,0.00,,,0.00,Rainwise IP-100,2013-09-27 22:39:00,
2013-09-27 18:45:00,54.5,52.0,30.54,SE,135,0.0,0.0,91,0.00,,,0.00,Rainwise IP-100,2013-09-27 22:45:00,
2013-09-27 18:50:00,54.3,52.0,30.54,SE,135,0.0,0.0,92,0.00,,,0.00,Rainwise IP-100,2013-09-27 22:50:00,
2013-09-27 18:55:00,54.1,52.0,30.54,SE,135,0.0,2.0,93,0.00,,,0.00,Rainwise IP-100,2013-09-27 22:55:00,
2013-09-27 19:00:00,54.1,52.0,30.54,SE,135,0.0,1.0,92,0.00,,,0.00,Rainwise IP-100,2013-09-27 23:00:00,
2013-09-27 19:05:00,54.1,52.0,30.54,SE,135,0.0,1.0,92,0.00,,,0.00,Rainwise IP-100,2013-09-27 23:05:00,
2013-09-27 19:10:00,54.2,51.0,30.54,SE,135,0.0,0.0,91,0.00,,,0.00,Rainwise IP-100,2013-09-27 23:10:00,
2013-09-27 19:15:00,54.2,51.0,30.54,SE,135,1.0,2.0,91,0.00,,,0.00,Rainwise IP-100,2013-09-27 23:15:00,
2013-09-27 19:20:00,54.1,52.0,30.54,SE,135,0.0,2.0,93,0.00,,,0.00,Rainwise IP-100,2013-09-27 23:20:00,
2013-09-27 19:26:00,53.9,52.0,30.54,SE,135,0.0,1.0,93,0.00,,,0.00,Rainwise IP-100,2013-09-27 23:26:00,
2013-09-27 19:31:00,53.8,51.0,30.55,East,90,1.0,2.0,92,0.00,,,0.00,Rainwise IP-100,2013-09-27 23:31:00,
2013-09-27 19:36:00,53.9,52.0,30.55,East,90,0.0,2.0,92,0.00,,,0.00,Rainwise IP-100,2013-09-27 23:36:00,
2013-09-27 19:41:00,53.9,52.0,30.54,East,90,0.0,1.0,92,0.00,,,0.00,Rainwise IP-100,2013-09-27 23:41:00,
2013-09-27 19:46:00,53.6,51.0,30.54,East,90,0.0,0.0,92,0.00,,,0.00,Rainwise IP-100,2013-09-27 23:46:00,
2013-09-27 19:51:00,53.2,50.0,30.54,East,90,0.0,0.0,92,0.00,,,0.00,Rainwise IP-100,2013-09-27 23:51:00,
2013-09-27 19:56:00,52.7,50.0,30.54,East,90,0.0,0.0,92,0.00,,,0.00,Rainwise IP-100,2013-09-27 23:56:00,
2013-09-27 20:02:00,52.2,50.0,30.54,East,90,1.0,2.0,96,0.00,,,0.00,Rainwise IP-100,2013-09-28 00:02:00,
2013-09-27 20:07:00,51.7,51.0,30.54,East,90,1.0,2.0,97,0.00,,,0.00,Rainwise IP-100,2013-09-28 00:07:00,
2013-09-27 20:12:00,51.3,50.0,30.54,East,90,0.0,2.0,97,0.00,,,0.00,Rainwise IP-100,2013-09-28 00:12:00,
2013-09-27 20:17:00,50.9,50.0,30.54,East,90,0.0,0.0,97,0.00,,,0.00,Rainwise IP-100,2013-09-28 00:17:00,
2013-09-27 20:22:00,50.7,50.0,30.53,NNE,22,0.0,1.0,97,0.00,,,0.00,Rainwise IP-100,2013-09-28 00:22:00,
2013-09-27 20:27:00,50.5,50.0,30.53,NNE,22,0.0,0.0,97,0.00,,,0.00,Rainwise IP-100,2013-09-28 00:27:00,
2013-09-27 20:32:00,50.3,49.0,30.53,NNE,22,0.0,0.0,97,0.00,,,0.00,Rainwise IP-100,2013-09-28 00:32:00,
2013-09-27 20:37:00,50.0,49.0,30.53,NNE,22,0.0,0.0,97,0.00,,,0.00,Rainwise IP-100,2013-09-28 00:37:00,
2013-09-27 20:43:00,49.7,49.0,30.53,NNE,22,0.0,0.0,97,0.00,,,0.00,Rainwise IP-100,2013-09-28 00:43:00,
2013-09-27 20:48:00,49.5,49.0,30.53,NNE,22,0.0,0.0,97,0.00,,,0.00,Rainwise IP-100,2013-09-28 00:48:00,
2013-09-27 20:53:00,49.3,48.0,30.54,NNE,22,0.0,0.0,97,0.00,,,0.00,Rainwise IP-100,2013-09-28 00:53:00,
2013-09-27 20:58:00,49.3,48.0,30.54,NNE,22,0.0,0.0,97,0.00,,,0.00,Rainwise IP-100,2013-09-28 00:58:00,
2013-09-27 21:03:00,49.3,48.0,30.54,NNE,22,0.0,0.0,97,0.00,,,0.00,Rainwise IP-100,2013-09-28 01:03:00,
2013-09-27 21:08:00,49.2,48.0,30.53,NNE,22,0.0,0.0,97,0.00,,,0.00,Rainwise IP-100,2013-09-28 01:08:00,
2013-09-27 21:13:00,48.9,48.0,30.53,NNE,22,0.0,0.0,97,0.00,,,0.00,Rainwise IP-100,2013-09-28 01:13:00,
2013-09-27 21:19:00,48.9,48.0,30.54,NNE,22,0.0,0.0,97,0.00,,,0.00,Rainwise IP-100,2013-09-28 01:19:00,
2013-09-27 21:24:00,48.7,48.0,30.53,NNE,22,0.0,0.0,97,0.00,,,0.00,Rainwise IP-100,2013-09-28 01:24:00,
2013-09-27 21:29:00,48.5,48.0,30.53,NNE,22,0.0,0.0,97,0.00,,,0.00,Rainwise IP-100,2013-09-28 01:29:00,
2013-09-27 21:34:00,48.2,47.0,30.53,NNE,22,0.0,0.0,97,0.00,,,0.00,Rainwise IP-100,2013-09-28 01:34:00,
2013-09-27 21:39:00,48.1,47.0,30.53,NNE,22,0.0,0.0,97,0.00,,,0.00,Rainwise IP-100,2013-09-28 01:39:00,
2013-09-27 21:44:00,47.9,47.0,30.53,NNE,22,0.0,0.0,97,0.00,,,0.00,Rainwise IP-100,2013-09-28 01:44:00,
2013-09-27 21:49:00,47.8,47.0,30.53,NNE,22,0.0,0.0,97,0.00,,,0.00,Rainwise IP-100,2013-09-28 01:49:00,
2013-09-27 21:54:00,47.7,47.0,30.53,NNE,22,0.0,0.0,97,0.00,,,0.00,Rainwise IP-100,2013-09-28 01:54:00,
2013-09-27 22:00:00,47.4,47.0,30.53,NNE,22,0.0,0.0,97,0.00,,,0.00,Rainwise IP-100,2013-09-28 02:00:00,
2013-09-27 22:05:00,47.3,46.0,30.53,NNE,22,0.0,0.0,97,0.00,,,0.00,Rainwise IP-100,2013-09-28 02:05:00,
2013-09-27 22:10:00,47.0,46.0,30.53,NNE,22,0.0,0.0,97,0.00,,,0.00,Rainwise IP-100,2013-09-28 02:10:00,
2013-09-27 22:15:00,46.9,46.0,30.53,NNE,22,0.0,0.0,97,0.00,,,0.00,Rainwise IP-100,2013-09-28 02:15:00,
2013-09-27 22:20:00,46.8,46.0,30.53,NNE,22,0.0,0.0,97,0.00,,,0.00,Rainwise IP-100,2013-09-28 02:20:00,
2013-09-27 22:25:00,46.7,46.0,30.53,NNE,22,0.0,0.0,97,0.00,,,0.00,Rainwise IP-100,2013-09-28 02:25:00,
2013-09-27 22:30:00,46.7,46.0,30.53,NNE,22,0.0,0.0,97,0.00,,,0.00,Rainwise IP-100,2013-09-28 02:30:00,
2013-09-27 22:36:00,46.6,46.0,30.54,NNE,22,0.0,0.0,97,0.00,,,0.00,Rainwise IP-100,2013-09-28 02:36:00,
2013-09-27 22:41:00,46.5,46.0,30.53,NNE,22,0.0,0.0,97,0.00,,,0.00,Rainwise IP-100,2013-09-28 02:41:00,
2013-09-27 22:46:00,46.5,46.0,30.53,NNE,22,0.0,0.0,97,0.00,,,0.00,Rainwise IP-100,2013-09-28 02:46:00,
2013-09-27 22:51:00,46.3,45.0,30.53,NNE,22,0.0,0.0,97,0.00,,,0.00,Rainwise IP-100,2013-09-28 02:51:00,
2013-09-27 22:56:00,46.2,45.0,30.53,NNE,22,0.0,0.0,97,0.00,,,0.00,Rainwise IP-100,2013-09-28 02:56:00,
2013-09-27 23:01:00,46.1,45.0,30.53,NNE,22,0.0,0.0,97,0.00,,,0.00,Rainwise IP-100,2013-09-28 03:01:00,
2013-09-27 23:06:00,45.9,45.0,30.53,NNE,22,0.0,0.0,97,0.00,,,0.00,Rainwise IP-100,2013-09-28 03:06:00,
2013-09-27 23:11:00,45.8,45.0,30.53,NNE,22,0.0,0.0,97,0.00,,,0.00,Rainwise IP-100,2013-09-28 03:11:00,
2013-09-27 23:17:00,45.8,45.0,30.53,NNE,22,0.0,0.0,97,0.00,,,0.00,Rainwise IP-100,2013-09-28 03:17:00,
2013-09-27 23:22:00,45.7,45.0,30.53,NNE,22,0.0,0.0,97,0.00,,,0.00,Rainwise IP-100,2013-09-28 03:22:00,
2013-09-27 23:27:00,45.8,45.0,30.53,NNE,22,0.0,0.0,97,0.00,,,0.00,Rainwise IP-100,2013-09-28 03:27:00,
2013-09-27 23:32:00,45.8,45.0,30.53,NNE,22,0.0,0.0,97,0.00,,,0.00,Rainwise IP-100,2013-09-28 03:32:00,
2013-09-27 23:37:00,45.6,45.0,30.53,NNE,22,0.0,0.0,97,0.00,,,0.00,Rainwise IP-100,2013-09-28 03:37:00,
2013-09-27 23:42:00,45.4,44.0,30.53,NNE,22,0.0,0.0,97,0.00,,,0.00,Rainwise IP-100,2013-09-28 03:42:00,
2013-09-27 23:47:00,45.2,44.0,30.53,NNE,22,0.0,0.0,97,0.00,,,0.00,Rainwise IP-100,2013-09-28 03:47:00,
2013-09-27 23:51:00,45.2,44.0,30.53,NNE,22,0.0,0.0,97,0.00,,,0.00,Rainwise IP-100,2013-09-28 03:51:00,
2013-09-27 23:56:00,45.1,44.0,30.53,NNE,22,0.0,0.0,97,0.00,,,0.00,Rainwise IP-100,2013-09-28 03:56:00,